Theta_e
301 305 301 300 303 304 306 306 305 304 304 303 303 306 303 300 302 305 302 299 301 307 319 322 325 327 327 325 325 321 315 319 323 323 323 322 325 328 330 331 334 334 333 331 331
303 303 303 302 302 303 305 304 304 304 303 305 303 304 304 302 301 300 300 300 299 301 312 319 323 325 326 325 327 321 314 317 318 320 321 319 322 325 330 331 333 333 334 333 330
302 298 300 303 304 304 304 305 304 304 305 306 304 303 304 301 301 300 308 305 300 299 303 313 322 324 325 325 325 326 315 315 318 319 318 318 319 323 328 329 332 332 334 332 329
303 296 299 301 302 302 305 305 304 302 305 305 305 302 305 302 299 312 310 307 310 307 305 307 316 320 325 326 325 324 322 317 318 321 322 318 319 320 326 331 332 332 332 333 329
297 298 301 301 301 300 302 304 304 301 301 305 304 303 306 304 302 302 310 304 308 309 309 309 308 315 323 324 325 326 323 322 319 323 323 322 321 319 321 323 329 332 333 333 330
300 304 305 305 305 305 304 303 300 300 300 300 300 303 306 306 303 300 300 301 300 306 309 310 311 311 317 324 324 325 325 325 323 323 324 322 322 321 321 325 328 332 333 332 330
306 306 306 306 306 306 305 302 301 300 300 300 302 303 306 304 302 301 300 300 301 301 305 308 309 311 315 321 324 324 325 324 324 324 322 323 321 319 320 322 330 333 332 332 331
305 305 306 306 306 306 304 302 300 300 301 300 304 304 305 303 302 303 304 302 303 306 309 307 306 308 311 313 318 325 324 327 324 324 324 322 325 319 320 321 331 333 332 332 332
303 305 306 306 306 306 304 300 299 300 300 303 306 306 306 306 306 306 306 306 304 305 306 305 309 311 311 314 317 324 326 327 326 324 324 323 323 321 321 324 331 332 332 331 331
301 303 304 305 305 303 300 298 302 305 306 306 306 306 307 306 306 307 308 307 307 305 306 306 309 310 310 313 318 323 324 325 326 324 324 324 323 320 321 323 331 331 332 331 331
300 300 301 300 300 299 300 303 305 306 306 305 306 305 306 306 306 306 306 307 307 306 308 309 308 308 307 310 314 320 325 324 324 323 325 325 325 324 322 321 328 331 331 331 331
300 300 299 299 299 303 305 305 306 305 304 304 305 305 305 305 305 306 306 307 308 308 307 308 308 307 308 310 313 315 319 325 322 322 323 325 325 324 322 321 322 329 331 332 332
299 300 300 300 302 305 303 306 306 303 302 304 305 305 307 307 307 307 306 308 308 309 308 308 307 307 308 310 314 315 317 323 324 322 322 325 327 326 322 319 321 324 328 331 331
300 300 300 302 304 304 306 306 302 302 306 303 307 308 308 309 308 308 307 309 308 309 308 308 307 308 310 312 314 318 319 322 323 324 326 323 327 323 324 320 319 322 326 329 331
301 300 300 301 302 305 304 305 302 304 302 302 306 307 307 307 308 309 308 308 307 308 306 306 308 309 310 311 313 315 319 322 323 325 326 327 326 324 324 325 322 321 324 328 330
300 300 299 299 300 303 303 302 305 306 303 300 305 306 307 306 309 306 307 309 306 307 308 307 308 308 307 310 313 316 322 321 323 325 328 326 328 327 325 325 324 320 323 327 329
300 299 299 298 300 301 301 304 303 306 299 301 304 304 306 307 306 308 310 310 310 310 309 310 308 308 313 316 315 316 324 322 325 326 327 324 327 325 322 322 322 322 323 325 328
299 299 299 300 300 301 304 298 302 293 298 302 304 304 310 310 310 311 311 313 308 307 312 313 313 310 311 317 317 318 323 322 326 325 325 321 327 325 323 322 321 322 322 324 326
300 300 300 301 301 301 305 293 297 298 303 306 304 308 310 312 313 313 313 311 308 311 314 315 312 308 312 315 319 321 322 319 319 314 324 326 325 322 318 319 320 321 321 323 324
300 301 303 302 301 306 296 299 296 303 304 305 306 305 310 311 313 313 313 312 313 313 313 313 314 306 309 313 314 319 318 322 320 324 324 321 322 323 317 314 319 317 318 321 323
300 301 304 302 303 303 293 293 298 302 304 305 305 306 306 310 312 314 313 312 312 313 313 314 314 310 310 310 315 317 318 318 320 320 322 323 321 307 304 305 305 309 317 320 322
300 291 303 303 298 299 290 296 302 305 304 305 304 305 306 308 310 312 313 312 310 312 314 312 312 314 311 306 307 311 317 318 324 320 316 316 312 303 304 304 304 306 309 313 316
299 299 302 303 291 292 298 299 301 303 304 304 305 307 306 308 309 310 311 309 310 311 312 313 313 313 314 311 307 310 311 318 318 316 318 323 317 304 303 303 304 306 309 310 311
299 291 299 302 299 293 298 294 299 302 304 304 305 306 307 307 307 309 309 309 308 308 308 310 311 313 316 315 313 313 311 312 315 319 319 321 318 310 307 304 305 307 308 310 310
298 289 293 290 293 297 299 300 302 298 302 303 306 305 306 306 306 307 306 307 308 307 307 309 310 309 311 312 312 314 313 312 314 317 320 320 319 311 310 308 305 306 308 309 309
298 295 294 295 297 299 298 295 301 302 302 303 304 305 303 306 305 306 307 307 308 307 308 308 311 309 307 310 311 312 314 314 315 316 316 317 318 309 310 315 310 307 307 307 308
299 298 300 294 296 295 291 298 300 300 302 303 303 304 301 302 302 302 303 304 306 308 307 309 309 308 306 307 310 311 310 314 315 315 316 317 316 315 315 312 305 306 306 306 306
Wind_Speed
12 12 13 14 13 12 14 13 14 13 11 12 11 12 14 15 16 19 24 22 18 18 17 13 20 20 22 13 11 7 2 5 6 6 4 7 3 1 14 16 13 21 12 12 35
12 14 15 16 15 13 13 14 14 13 9 11 10 10 14 14 16 24 24 22 22 18 22 16 15 20 14 11 11 7 5 8 5 3 1 7 7 10 3 15 5 14 16 24 39
16 18 18 16 16 14 10 13 13 10 9 8 9 10 12 13 17 7 4 12 17 16 21 24 17 19 14 12 13 8 6 5 5 3 6 6 10 8 5 5 13 25 25 40 43
20 21 18 16 14 11 10 13 12 11 11 9 9 8 10 10 4 7 5 6 7 7 16 23 26 11 16 11 16 6 14 10 7 0 4 4 13 14 10 9 14 21 28 43 45
21 19 17 15 15 14 12 13 13 12 10 9 9 7 12 10 21 9 8 3 2 3 12 18 24 17 12 15 16 14 7 18 18 12 8 8 9 8 21 17 8 22 34 43 43
17 17 17 17 17 16 15 14 13 12 11 9 9 8 12 13 17 11 10 15 20 13 9 16 12 20 21 11 22 16 14 7 14 10 8 7 11 2 10 8 17 28 36 40 43
19 20 21 20 18 16 15 14 13 11 10 9 9 9 20 27 19 17 17 18 11 23 20 17 14 18 12 10 18 16 12 15 17 7 3 5 11 9 25 14 21 32 37 39 42
20 21 21 18 15 14 13 12 11 10 11 11 10 12 16 18 18 25 22 27 22 19 17 16 19 20 20 20 13 13 11 13 19 19 11 5 15 9 12 18 24 32 36 39 43
17 17 14 9 8 9 11 10 8 11 13 10 12 13 11 13 15 9 8 16 20 27 23 18 16 15 13 13 10 16 11 26 18 30 17 15 4 17 20 18 24 30 37 39 41
14 13 10 7 5 6 8 9 4 8 6 9 14 7 18 15 10 8 8 11 13 18 14 19 14 6 11 12 14 14 24 20 23 18 25 22 13 11 14 21 26 31 34 36 41
11 11 9 7 5 6 8 4 4 3 6 11 12 17 19 21 23 25 19 8 15 14 11 14 10 16 24 19 19 14 16 24 14 12 20 30 20 16 19 15 18 22 30 38 43
9 9 8 7 6 5 7 4 5 8 12 20 29 36 36 31 15 15 12 8 12 15 15 5 20 23 16 14 20 25 18 18 7 14 17 20 27 20 14 14 22 27 29 41 37
7 7 8 7 3 4 7 6 8 16 5 10 10 11 9 6 9 13 12 14 7 14 20 19 10 17 16 18 17 23 16 17 9 11 10 4 13 16 16 23 21 30 41 41 42
6 7 8 8 1 6 6 5 16 13 3 5 3 3 4 7 7 16 13 11 7 18 10 14 16 13 14 17 17 13 14 14 14 14 10 13 11 21 20 13 12 24 33 31 38
6 7 7 8 7 3 6 10 14 1 4 3 4 5 8 7 12 3 20 12 6 12 6 8 12 18 15 20 18 15 14 13 11 13 6 12 8 18 16 26 22 15 28 35 43
7 8 9 8 8 6 9 11 2 1 6 7 5 5 6 7 3 4 10 11 7 6 6 8 2 14 11 11 24 15 15 5 9 10 9 12 11 10 20 21 23 13 27 38 43
8 8 10 8 6 7 10 1 1 1 4 9 6 9 9 5 3 3 7 8 4 5 5 5 13 5 12 16 15 19 13 3 5 5 5 12 10 18 6 17 17 22 27 40 45
8 9 9 4 4 8 1 4 3 4 5 4 7 16 5 3 4 3 2 6 6 2 4 9 7 14 6 11 14 23 13 5 6 6 3 5 9 11 13 23 18 26 36 39 47
9 8 4 4 8 4 1 4 5 4 3 6 12 4 4 3 4 4 3 2 2 7 4 6 1 4 1 2 4 10 5 4 5 3 3 4 2 7 7 11 15 16 25 32 43
8 4 4 2 6 2 3 2 3 4 2 1 3 3 5 8 7 6 7 4 3 1 3 2 5 4 6 5 3 2 6 4 2 5 4 2 3 5 4 8 7 7 17 31 35
6 2 4 6 1 1 3 4 4 8 7 3 3 4 6 6 6 5 7 4 9 7 6 3 2 2 1 1 4 4 4 3 4 1 3 3 2 4 7 6 9 9 16 24 36
4 1 3 1 4 1 1 2 3 3 5 3 4 4 4 5 5 4 6 6 19 8 5 6 3 4 3 1 3 3 2 4 6 6 1 1 1 6 6 7 9 11 8 10 14
3 3 1 4 3 1 1 3 3 3 3 1 3 4 2 4 5 6 5 10 16 9 7 5 3 3 1 3 3 1 2 2 4 2 4 4 3 5 6 8 14 14 15 8 5
3 1 1 3 4 6 3 3 3 4 3 3 3 6 2 3 3 6 8 5 12 10 13 4 2 1 2 4 2 3 4 2 2 2 5 2 4 6 9 8 10 18 15 13 12
2 1 3 1 2 2 3 3 1 3 3 8 1 8 7 3 4 6 6 6 4 12 7 4 3 2 4 3 2 2 4 6 3 2 2 3 4 1 3 8 9 16 19 17 13
4 6 4 2 2 1 2 2 1 3 1 3 3 5 5 3 4 5 6 4 3 5 5 4 1 2 4 4 5 3 4 6 5 2 3 3 1 3 4 11 15 16 17 17 17
6 8 4 1 1 3 3 3 1 2 2 2 4 3 5 4 10 14 12 14 6 6 6 4 2 3 3 3 4 4 3 1 2 2 0 2 2 4 5 8 13 14 16 16 15
Wind_Direction
319 309 303 301 301 304 303 307 306 301 299 301 301 302 299 292 285 282 267 255 250 227 226 228 226 231 231 221 198 167 150 207 203 171 235 23 315 193 203 158 163 186 189 199 169
317 315 313 312 306 303 299 302 302 300 294 296 296 294 300 302 294 280 281 269 257 241 227 219 221 220 216 221 191 178 175 204 203 209 130 353 2 314 180 159 170 182 173 165 170
323 319 313 308 304 300 299 299 297 299 296 287 298 300 301 310 304 293 309 279 250 237 235 225 216 229 211 209 201 191 198 197 242 214 356 332 327 323 208 246 190 179 165 168 172
315 317 314 309 303 301 295 293 299 298 299 288 286 287 288 290 270 150 54 84 115 227 222 229 237 251 208 207 202 182 209 178 234 204 348 328 315 305 238 222 218 192 176 174 178
314 316 315 311 307 301 294 295 298 303 299 290 285 282 273 253 250 230 225 332 252 253 231 231 246 255 269 205 206 223 184 218 224 279 297 303 293 274 280 275 230 188 177 180 185
320 319 315 307 301 298 298 298 301 299 295 288 276 263 266 259 281 284 247 249 242 228 216 221 231 249 292 251 199 190 219 196 207 248 296 295 282 209 269 280 200 186 184 188 190
323 315 307 299 294 292 292 295 295 295 293 281 272 262 260 243 265 272 270 270 257 231 229 225 243 248 291 266 245 196 202 230 243 251 271 324 287 201 251 251 192 187 190 193 194
318 312 305 296 290 287 291 293 299 295 286 276 276 265 259 267 274 277 271 252 241 224 232 227 228 251 257 276 319 217 200 209 218 226 245 200 256 249 260 222 202 194 193 194 197
328 333 332 314 299 295 297 305 306 286 277 283 272 242 261 263 258 284 237 261 246 236 241 250 241 227 249 236 259 201 209 210 210 196 207 202 245 261 251 225 194 200 199 197 198
346 350 355 354 325 314 321 323 290 285 266 258 247 258 242 243 246 218 333 265 253 245 252 217 224 220 223 215 222 212 209 205 205 193 199 230 241 261 271 214 202 201 201 199 201
358 3 8 13 2 352 350 25 0 287 227 231 244 226 274 277 282 267 267 281 218 202 204 192 210 218 220 221 236 278 240 216 214 183 200 216 239 260 259 241 213 200 196 202 209
356 356 359 359 355 18 21 24 332 312 296 276 265 261 268 278 276 253 267 213 179 213 199 203 216 218 228 231 228 252 271 214 173 191 194 213 228 243 247 248 214 207 205 210 207
354 350 348 341 334 358 344 318 323 327 286 296 268 256 275 274 248 270 227 206 202 204 199 208 216 211 216 231 226 248 255 210 156 186 201 128 233 240 246 239 237 221 223 216 208
343 343 345 350 26 313 317 308 326 320 286 279 238 258 326 315 261 260 223 206 217 208 208 220 220 195 213 237 205 251 246 199 175 159 205 193 238 229 236 242 225 213 215 209 209
326 334 338 343 332 316 298 316 322 111 351 264 282 292 305 245 298 248 209 199 230 166 161 211 193 199 222 223 203 241 220 216 180 178 135 195 223 244 212 225 229 210 208 205 213
313 322 320 318 307 298 320 330 278 23 261 329 305 331 309 279 239 277 188 207 202 188 246 218 132 200 225 239 207 231 167 164 190 193 219 204 213 216 218 219 220 204 204 205 211
311 308 304 296 294 323 323 76 9 182 346 312 327 324 310 277 294 250 182 176 210 186 185 177 215 248 236 201 192 221 190 146 190 186 216 172 211 239 227 216 213 213 204 209 214
309 303 296 268 314 331 265 56 46 242 268 340 317 312 276 283 244 242 257 199 203 130 161 202 220 194 220 186 185 206 183 163 172 184 157 135 234 243 226 257 249 235 213 211 212
317 304 244 198 337 336 248 60 197 232 265 313 314 299 297 304 295 328 320 280 278 189 234 169 140 275 64 49 153 159 206 127 89 9 99 212 298 286 253 238 230 236 213 210 207
320 301 193 260 339 157 82 169 232 218 264 325 291 341 306 319 324 339 341 343 340 253 253 243 102 14 348 50 4 173 122 165 119 166 188 267 283 251 332 318 262 230 207 210 211
306 217 182 328 144 150 136 222 244 252 220 218 288 289 293 303 307 318 351 1 354 329 355 330 40 49 212 1 164 148 153 80 88 155 201 143 293 266 286 305 304 293 235 218 217
259 51 189 316 62 75 132 204 283 304 208 253 258 277 280 296 308 315 340 344 340 328 354 3 69 73 68 345 354 345 162 141 194 188 186 109 306 332 351 341 338 5 348 216 219
229 177 209 187 128 175 275 287 272 345 301 248 281 266 205 297 316 1 347 345 354 16 4 358 32 95 54 30 36 132 311 78 94 73 183 151 157 349 14 5 15 31 29 52 78
192 63 100 103 94 127 152 293 305 283 281 331 347 317 326 308 313 333 343 349 354 358 351 358 36 29 102 114 136 174 162 159 91 145 145 196 161 4 7 13 11 28 41 38 48
200 164 148 227 337 106 170 201 271 6 339 16 327 11 342 325 315 345 345 322 345 358 352 29 49 43 46 55 51 22 165 171 148 76 170 152 177 225 359 12 12 33 42 43 41
191 144 118 123 121 101 352 270 192 296 25 358 343 323 343 7 345 322 340 358 339 328 353 333 60 20 19 30 56 60 28 179 198 197 268 316 60 180 157 22 15 28 27 39 43
171 149 149 344 113 102 222 208 207 269 203 93 321 317 328 291 302 289 297 301 294 326 343 360 7 20 315 345 33 39 2 216 110 20 179 252 356 309 323 43 26 30 39 34 23